Total_Precipitation_Accumulation
1.11 0.64 1.11 1.04 0.89 0.75 0.72 0.76 0.80 0.82 0.80 0.74 0.65 0.58 0.52 0.49 0.44 0.44 0.41 0.37 0.36 0.38 0.44 0.50 0.48 0.50 0.48 0.48 0.50 0.56 0.56 0.55 0.51 0.41 0.38 0.42 0.48 0.54 0.69 0.84 1.13 1.51 1.09
0.69 0.48 0.96 1.07 0.91 0.80 0.76 0.73 0.74 0.75 0.72 0.67 0.64 0.59 0.55 0.51 0.47 0.44 0.40 0.38 0.37 0.37 0.38 0.44 0.48 0.51 0.54 0.55 0.63 0.69 0.64 0.60 0.62 0.60 0.65 0.77 0.66 0.62 0.63 0.77 1.19 1.46 1.07
0.49 0.43 0.65 1.01 0.93 0.89 0.88 0.81 0.72 0.73 0.68 0.61 0.63 0.58 0.58 0.54 0.47 0.43 0.41 0.40 0.38 0.37 0.37 0.42 0.51 0.57 0.59 0.65 0.71 0.74 0.74 0.72 0.73 0.74 1.09 1.62 1.22 0.84 0.80 0.83 0.90 0.96 0.97
0.39 0.39 0.55 0.93 0.94 0.95 0.95 0.84 0.78 0.77 0.70 0.70 0.71 0.66 0.64 0.58 0.50 0.45 0.43 0.40 0.39 0.40 0.44 0.45 0.52 0.61 0.64 0.66 0.66 0.66 0.68 0.74 0.83 0.80 1.18 1.62 1.61 1.18 0.99 0.98 0.86 0.89 1.01
0.40 0.43 0.70 0.99 0.96 0.95 0.88 0.82 0.87 0.82 0.73 0.73 0.72 0.69 0.69 0.63 0.59 0.49 0.45 0.45 0.44 0.49 0.53 0.52 0.55 0.60 0.66 0.68 0.64 0.62 0.66 0.85 0.82 0.77 1.02 1.31 1.69 1.37 1.07 1.07 0.97 0.95 1.05
0.54 0.49 0.64 0.85 0.91 0.89 0.76 0.77 0.86 0.80 0.75 0.67 0.61 0.63 0.63 0.60 0.59 0.53 0.54 0.56 0.52 0.55 0.60 0.62 0.65 0.67 0.68 0.69 0.66 0.71 0.81 0.86 0.77 0.96 1.10 1.32 1.57 1.35 1.05 0.98 1.05 1.12 1.20
0.50 0.43 0.50 0.75 0.81 0.78 0.74 0.80 0.90 0.83 0.76 0.64 0.58 0.62 0.63 0.61 0.59 0.57 0.60 0.60 0.58 0.56 0.59 0.64 0.68 0.69 0.65 0.67 0.67 0.69 0.78 0.79 0.87 1.08 1.13 1.32 1.31 1.19 1.01 0.93 1.09 1.16 1.24
0.71 0.57 0.55 0.75 0.80 0.77 0.80 0.83 0.90 0.90 0.79 0.66 0.60 0.60 0.58 0.58 0.58 0.59 0.60 0.61 0.60 0.59 0.63 0.64 0.64 0.62 0.57 0.58 0.59 0.60 0.72 0.74 0.76 0.92 1.03 1.25 1.28 1.18 0.94 0.89 0.99 1.10 1.22
1.06 0.95 0.85 0.81 0.76 0.78 0.85 0.82 0.96 1.10 0.94 0.76 0.68 0.67 0.59 0.55 0.54 0.55 0.55 0.61 0.61 0.63 0.62 0.62 0.64 0.63 0.60 0.58 0.57 0.63 0.74 0.72 0.69 0.82 0.84 1.13 1.31 1.22 1.03 0.93 0.94 1.10 1.24
1.03 0.96 0.95 1.03 1.02 1.00 1.01 1.08 1.20 1.51 1.38 1.01 0.81 0.70 0.65 0.58 0.55 0.59 0.56 0.59 0.65 0.68 0.69 0.72 0.71 0.70 0.71 0.66 0.63 0.71 0.74 0.61 0.62 0.62 0.69 0.91 1.33 1.25 1.04 0.93 0.87 0.91 1.05
0.78 0.82 0.88 0.94 0.96 0.98 0.96 1.13 1.38 1.67 1.73 1.38 1.10 0.95 0.79 0.55 0.58 0.66 0.59 0.69 0.74 0.77 0.80 0.87 0.87 0.80 0.80 0.72 0.70 0.72 0.62 0.46 0.68 0.69 0.73 0.93 1.24 1.24 1.01 0.79 0.71 0.75 0.82
0.60 0.57 0.58 0.62 0.67 0.72 0.77 1.04 1.27 1.33 1.53 1.31 1.28 1.13 0.98 0.92 0.87 0.69 0.64 0.79 0.86 0.87 0.86 0.92 0.97 0.82 0.69 0.57 0.59 0.62 0.43 0.42 0.60 0.65 0.65 1.02 1.32 1.30 1.04 0.82 0.72 0.73 0.72
0.55 0.52 0.45 0.46 0.48 0.54 0.67 0.88 1.10 1.23 1.40 1.41 1.39 1.33 1.32 1.27 0.94 0.78 0.85 0.88 0.90 0.90 0.79 0.84 0.84 0.65 0.53 0.49 0.53 0.48 0.40 0.43 0.54 0.64 0.74 1.05 1.36 1.35 1.08 0.87 0.80 0.77 0.76
0.50 0.56 0.49 0.37 0.37 0.39 0.47 0.66 0.86 1.07 1.26 1.31 1.14 1.06 1.19 1.20 1.01 0.88 1.01 1.09 1.07 1.02 1.01 1.02 0.93 0.77 0.59 0.53 0.51 0.51 0.45 0.50 0.58 0.66 0.80 0.84 1.17 1.29 1.20 1.00 0.92 0.84 0.85
0.47 0.54 0.56 0.48 0.40 0.39 0.44 0.51 0.58 0.87 1.05 1.20 1.25 1.03 1.15 1.19 1.12 0.99 0.93 1.10 1.07 1.06 1.07 1.08 1.04 0.92 0.80 0.66 0.62 0.59 0.63 0.62 0.61 0.59 0.75 0.73 0.89 1.17 1.28 1.23 1.14 0.97 0.95
0.40 0.47 0.52 0.55 0.54 0.50 0.49 0.51 0.51 0.56 0.67 0.79 0.76 0.73 0.92 1.04 1.01 1.01 0.88 0.94 1.01 1.11 1.26 1.27 1.10 1.02 0.92 0.80 0.80 0.78 0.77 0.73 0.72 0.62 0.71 0.75 0.65 0.73 0.95 1.22 1.33 1.21 1.11
0.39 0.42 0.47 0.54 0.61 0.62 0.63 0.71 0.64 0.59 0.64 0.64 0.60 0.61 0.72 0.83 0.85 0.98 0.96 0.93 0.94 1.12 1.30 1.37 1.27 1.17 0.99 0.91 0.90 0.88 0.79 0.84 0.83 0.74 0.74 0.81 0.67 0.56 0.71 1.04 1.31 1.37 1.29
0.38 0.37 0.39 0.43 0.48 0.53 0.60 0.68 0.73 0.73 0.75 0.71 0.74 0.70 0.66 0.80 0.92 1.04 1.07 0.99 0.97 1.14 1.31 1.42 1.47 1.44 1.29 1.19 1.11 0.98 0.91 1.00 0.96 0.86 0.81 0.85 0.86 0.71 0.69 0.76 0.98 1.27 1.41
0.37 0.33 0.31 0.32 0.32 0.35 0.42 0.54 0.65 0.72 0.80 0.87 0.88 0.87 0.85 0.89 0.92 1.06 1.21 1.22 1.20 1.28 1.33 1.33 1.40 1.36 1.36 1.34 1.22 1.14 1.04 1.08 1.09 0.97 0.95 1.00 1.00 0.95 0.83 0.63 0.67 0.75 1.09
0.30 0.31 0.30 0.31 0.30 0.27 0.31 0.45 0.56 0.63 0.71 0.87 0.94 1.01 1.27 1.36 1.14 1.11 1.22 1.24 1.27 1.40 1.41 1.52 1.65 1.52 1.40 1.45 1.39 1.27 1.16 1.09 1.04 1.07 1.12 1.16 1.13 1.03 0.96 0.81 0.74 0.56 0.68
0.16 0.15 0.18 0.24 0.31 0.29 0.26 0.33 0.44 0.53 0.67 0.81 0.97 1.04 1.28 1.38 1.28 1.30 1.31 1.30 1.30 1.34 1.38 1.55 1.84 1.76 1.59 1.49 1.65 1.56 1.38 1.20 1.11 1.10 1.12 1.26 1.29 1.15 1.10 1.13 0.98 0.79 0.60
0.09 0.09 0.12 0.16 0.25 0.32 0.36 0.41 0.53 0.71 0.83 0.93 1.06 1.13 1.24 1.26 1.26 1.19 1.34 1.42 1.37 1.44 1.50 1.65 1.88 1.99 1.80 1.64 1.87 2.18 1.90 1.60 1.24 1.12 1.12 1.12 1.25 1.24 1.14 1.04 1.01 0.97 0.80
0.05 0.07 0.12 0.20 0.33 0.50 0.66 0.88 1.13 1.41 1.53 1.42 1.27 1.34 1.47 1.54 1.50 1.42 1.49 1.63 1.54 1.55 1.60 1.64 1.69 2.04 2.13 1.96 1.93 2.33 2.10 1.89 1.80 1.34 1.08 1.02 1.21 1.30 1.27 1.14 1.03 1.10 1.08
0.12 0.19 0.29 0.41 0.57 0.74 0.95 1.17 1.43 1.66 1.82 1.84 1.86 1.89 1.88 1.83 1.71 1.59 1.59 1.63 1.65 1.70 1.63 1.52 1.65 1.98 2.35 2.34 2.18 1.98 1.79 1.69 1.88 1.74 1.26 1.01 1.11 1.23 1.33 1.24 1.15 1.17 1.22
0.29 0.42 0.53 0.76 0.93 1.07 1.13 1.23 1.45 1.56 1.63 1.74 1.88 1.93 1.93 1.85 1.72 1.58 1.51 1.55 1.61 1.71 1.70 1.73 1.87 2.13 2.36 2.52 2.45 2.18 1.90 1.70 1.41 1.55 1.55 1.34 1.13 1.06 1.09 1.21 1.30 1.24 1.23
0.58 0.81 0.96 1.07 1.16 1.16 1.14 1.16 1.30 1.44 1.52 1.60 1.73 1.79 1.73 1.59 1.55 1.51 1.49 1.45 1.40 1.48 1.58 1.73 1.97 2.08 2.25 2.44 2.45 2.17 1.98 1.81 1.63 1.54 1.43 1.48 1.48 1.21 1.03 1.03 1.13 1.17 1.19